Regional Weather Roundup
Issued by NWS Goodland, KS

Home | Current Version | Previous Version | Graphics & Text | Print | Product List | Glossary On
Versions: 1 2 3 4 5 6 7 8 9 10 11 12 13 14 15 16 17 18 19 20 21 22 23 24 25 26 27 28 29 30 31 32 33 34 35 36 37 38 39 40 41 42 43 44 45 46 47 48 49 50
000
ASUS43 KGLD 250208
RWRGLD

GOODLAND FORECAST AREA HOURLY WEATHER ROUNDUP
NATIONAL WEATHER SERVICE GOODLAND KS
800 PM MDT SUN MAY 24 2015

...OFFICIAL OBSERVATIONS...

CITY           SKY/WX    TMP DP  RH WIND       PRES   REMARKS
GOODLAND KS    TSTM      50  48  93 N8        29.84R
HILL CITY KS   CLOUDY    64  58  80 S8        29.79R
IMPERIAL NEB     N/A     52  49  89 S8        29.84R
MCCOOK NEB     MOCLDY    64  56  75 SE9       29.78R
AKRON CO       CLOUDY    49  47  93 CALM      29.80S
BURLINGTON CO  CLOUDY    50  47  89 E13       29.80F
LIMON CO       CLOUDY    50  46  86 E9        29.84R
$$

...UNOFFICIAL OBSERVATIONS...

CITY           SKY/WX    TMP DP  RH WIND       PRES   REMARKS
COLBY KS       CLOUDY    63  61  94 CALM      29.82R
GOVE KS          N/A     64  32  30 MISG        N/A
LENORA KS        N/A     63  32  31 MISG        N/A
NORTON KS      CLOUDY    63  55  77 SE3       29.79R
SHARON SPRINGS   N/A     57  52  83 MISG        N/A
TRENTON NEB      N/A     57  32  39 W20G29      N/A
KIT CARSON CO    N/A     54  47  78 MISG        N/A
$$



USA.gov is the U.S. government's official web portal to all federal, state and local government web resources and services.